Time,TemperatureF,DewpointF,PressureIn,WindDirection,WindDirectionDegrees,WindSpeedMPH,WindSpeedGustMPH,Humidity,HourlyPrecipIn,Conditions,Clouds,dailyrainin,SoftwareType,DateUTC
2013-01-20 00:02:00,50.0,35.0,30.22,SE,143,1.0,2.0,57,-99.99,,,-99.99,,2013-01-20 08:02:00,
2013-01-20 00:12:00,50.0,35.0,30.22,SE,143,1.0,2.0,57,-99.99,,,-99.99,,2013-01-20 08:12:00,
2013-01-20 00:22:00,50.0,36.0,30.22,SE,145,0.0,3.0,58,-99.99,,,-99.99,,2013-01-20 08:22:00,
2013-01-20 00:32:00,50.0,36.0,30.22,SSE,164,2.0,3.0,59,-99.99,,,-99.99,,2013-01-20 08:32:00,
2013-01-20 00:42:00,50.0,36.0,30.22,SSE,164,2.0,3.0,59,-99.99,,,-99.99,,2013-01-20 08:42:00,
2013-01-20 00:52:00,49.0,36.0,30.22,SSE,166,1.0,3.0,60,-99.99,,,-99.99,,2013-01-20 08:52:00,
2013-01-20 01:02:00,49.0,36.0,30.22,SSE,166,0.0,2.0,61,-99.99,,,-99.99,,2013-01-20 09:02:00,
2013-01-20 01:12:00,49.0,36.0,30.22,SSE,166,0.0,2.0,61,-99.99,,,-99.99,,2013-01-20 09:12:00,
2013-01-20 01:22:00,49.0,37.0,30.22,SE,130,3.0,4.0,63,-99.99,,,-99.99,,2013-01-20 09:22:00,
2013-01-20 01:33:00,49.0,37.0,30.22,SSE,151,1.0,2.0,64,-99.99,,,-99.99,,2013-01-20 09:33:00,
2013-01-20 01:42:00,49.0,37.0,30.22,SSE,151,1.0,2.0,64,-99.99,,,-99.99,,2013-01-20 09:42:00,
2013-01-20 01:52:00,49.0,38.0,30.22,SSE,151,1.0,2.0,66,-99.99,,,-99.99,,2013-01-20 09:52:00,
2013-01-20 02:02:00,48.0,37.0,30.22,SE,145,0.0,3.0,65,-99.99,,,-99.99,,2013-01-20 10:02:00,
2013-01-20 02:11:00,48.0,37.0,30.22,SE,145,0.0,3.0,65,-99.99,,,-99.99,,2013-01-20 10:11:00,
2013-01-20 02:22:00,48.0,37.0,30.22,SE,146,0.0,2.0,66,-99.99,,,-99.99,,2013-01-20 10:22:00,
2013-01-20 02:32:00,47.0,36.0,30.22,SE,142,0.0,2.0,66,-99.99,,,-99.99,,2013-01-20 10:32:00,
2013-01-20 02:42:00,47.0,36.0,30.22,SE,142,0.0,2.0,66,-99.99,,,-99.99,,2013-01-20 10:42:00,
2013-01-20 02:52:00,47.0,37.0,30.22,SE,141,0.0,2.0,67,-99.99,,,-99.99,,2013-01-20 10:52:00,
2013-01-20 03:02:00,47.0,37.0,30.22,SE,143,0.0,1.0,68,-99.99,,,-99.99,,2013-01-20 11:02:00,
2013-01-20 03:11:00,47.0,37.0,30.22,SE,143,0.0,1.0,68,-99.99,,,-99.99,,2013-01-20 11:11:00,
2013-01-20 03:22:00,47.0,37.0,30.22,NW,326,0.0,2.0,69,-99.99,,,-99.99,,2013-01-20 11:22:00,
2013-01-20 03:32:00,47.0,38.0,30.23,North,6,0.0,2.0,71,-99.99,,,-99.99,,2013-01-20 11:32:00,
2013-01-20 03:42:00,47.0,38.0,30.23,North,6,0.0,2.0,71,-99.99,,,-99.99,,2013-01-20 11:42:00,
2013-01-20 03:53:00,46.0,37.0,30.22,NE,37,0.0,3.0,72,-99.99,,,-99.99,,2013-01-20 11:53:00,
2013-01-20 04:02:00,46.0,37.0,30.22,NE,35,1.0,1.0,72,-99.99,,,-99.99,,2013-01-20 12:02:00,
2013-01-20 04:12:00,46.0,37.0,30.22,NE,35,1.0,1.0,72,-99.99,,,-99.99,,2013-01-20 12:12:00,
2013-01-20 04:22:00,46.0,38.0,30.22,NNE,31,2.0,3.0,73,-99.99,,,-99.99,,2013-01-20 12:22:00,
2013-01-20 04:33:00,46.0,38.0,30.22,NNE,18,0.0,2.0,73,-99.99,,,-99.99,,2013-01-20 12:33:00,
2013-01-20 04:42:00,46.0,38.0,30.22,NNE,18,0.0,2.0,73,-99.99,,,-99.99,,2013-01-20 12:42:00,
2013-01-20 04:52:00,46.0,38.0,30.21,NNW,347,0.0,2.0,74,-99.99,,,-99.99,,2013-01-20 12:52:00,
2013-01-20 05:02:00,46.0,39.0,30.21,West,268,2.0,4.0,75,-99.99,,,-99.99,,2013-01-20 13:02:00,
2013-01-20 05:12:00,46.0,39.0,30.21,West,268,2.0,4.0,75,-99.99,,,-99.99,,2013-01-20 13:12:00,
2013-01-20 05:22:00,46.0,39.0,30.21,WNW,282,0.0,2.0,76,-99.99,,,-99.99,,2013-01-20 13:22:00,
2013-01-20 05:33:00,46.0,39.0,30.21,NNW,332,1.0,3.0,76,-99.99,,,-99.99,,2013-01-20 13:33:00,
2013-01-20 05:42:00,46.0,39.0,30.21,NNW,332,1.0,3.0,76,-99.99,,,-99.99,,2013-01-20 13:42:00,
2013-01-20 05:52:00,46.0,39.0,30.21,NNW,328,2.0,2.0,76,-99.99,,,-99.99,,2013-01-20 13:52:00,
2013-01-20 06:02:00,46.0,39.0,30.20,South,185,1.0,2.0,75,-99.99,,,-99.99,,2013-01-20 14:02:00,
2013-01-20 06:12:00,46.0,39.0,30.20,South,185,1.0,2.0,75,-99.99,,,-99.99,,2013-01-20 14:12:00,
2013-01-20 06:22:00,46.0,38.0,30.20,South,185,1.0,2.0,74,-99.99,,,-99.99,,2013-01-20 14:22:00,
2013-01-20 06:32:00,46.0,38.0,30.20,South,183,2.0,3.0,74,-99.99,,,-99.99,,2013-01-20 14:32:00,
2013-01-20 06:42:00,46.0,38.0,30.20,South,183,2.0,3.0,74,-99.99,,,-99.99,,2013-01-20 14:42:00,
2013-01-20 06:52:00,46.0,38.0,30.20,SSE,165,0.0,2.0,74,-99.99,,,-99.99,,2013-01-20 14:52:00,
2013-01-20 07:03:00,46.0,37.0,30.20,SSE,160,1.0,2.0,72,-99.99,,,-99.99,,2013-01-20 15:03:00,
2013-01-20 07:12:00,46.0,37.0,30.20,SSE,160,1.0,2.0,72,-99.99,,,-99.99,,2013-01-20 15:12:00,
2013-01-20 07:22:00,46.0,37.0,30.20,SSE,164,1.0,3.0,71,-99.99,,,-99.99,,2013-01-20 15:22:00,
2013-01-20 07:33:00,47.0,38.0,30.21,SSE,155,2.0,3.0,70,-99.99,,,-99.99,,2013-01-20 15:33:00,
2013-01-20 07:42:00,47.0,38.0,30.21,SSE,155,2.0,3.0,70,-99.99,,,-99.99,,2013-01-20 15:42:00,
2013-01-20 07:52:00,47.0,38.0,30.20,SSE,153,1.0,3.0,70,-99.99,,,-99.99,,2013-01-20 15:52:00,
2013-01-20 08:02:00,47.0,39.0,30.21,SSE,153,1.0,4.0,73,-99.99,,,-99.99,,2013-01-20 16:02:00,
2013-01-20 08:12:00,47.0,39.0,30.21,SSE,153,1.0,4.0,73,-99.99,,,-99.99,,2013-01-20 16:12:00,
2013-01-20 08:22:00,47.0,39.0,30.21,SSE,161,2.0,5.0,75,-99.99,,,-99.99,,2013-01-20 16:22:00,
2013-01-20 08:33:00,47.0,40.0,30.21,SSE,160,1.0,2.0,76,-99.99,,,-99.99,,2013-01-20 16:33:00,
2013-01-20 08:42:00,47.0,40.0,30.21,SSE,160,1.0,2.0,76,-99.99,,,-99.99,,2013-01-20 16:42:00,
2013-01-20 08:52:00,47.0,40.0,30.21,SSE,162,2.0,3.0,76,-99.99,,,-99.99,,2013-01-20 16:52:00,
2013-01-20 09:02:00,49.0,41.0,30.22,SSE,164,2.0,3.0,73,-99.99,,,-99.99,,2013-01-20 17:02:00,
2013-01-20 09:12:00,49.0,41.0,30.22,SSE,164,2.0,3.0,73,-99.99,,,-99.99,,2013-01-20 17:12:00,
2013-01-20 09:22:00,50.0,41.0,30.22,SSE,163,1.0,2.0,70,-99.99,,,-99.99,,2013-01-20 17:22:00,
2013-01-20 09:32:00,52.0,39.0,30.22,NW,312,2.0,3.0,60,-99.99,,,-99.99,,2013-01-20 17:32:00,
2013-01-20 09:42:00,52.0,39.0,30.22,NW,312,2.0,3.0,60,-99.99,,,-99.99,,2013-01-20 17:42:00,
2013-01-20 09:52:00,53.0,39.0,30.22,WNW,295,0.0,3.0,58,-99.99,,,-99.99,,2013-01-20 17:52:00,
2013-01-20 10:02:00,53.0,40.0,30.23,NNE,13,1.0,4.0,61,-99.99,,,-99.99,,2013-01-20 18:02:00,
2013-01-20 10:12:00,53.0,40.0,30.23,NNE,13,1.0,4.0,61,-99.99,,,-99.99,,2013-01-20 18:12:00,
2013-01-20 10:23:00,53.0,40.0,30.23,North,349,2.0,3.0,61,-99.99,,,-99.99,,2013-01-20 18:23:00,
2013-01-20 10:33:00,54.0,40.0,30.23,West,269,1.0,4.0,58,-99.99,,,-99.99,,2013-01-20 18:33:00,
2013-01-20 10:42:00,54.0,40.0,30.23,West,269,1.0,4.0,58,-99.99,,,-99.99,,2013-01-20 18:42:00,
2013-01-20 10:52:00,54.0,38.0,30.23,WNW,291,1.0,3.0,54,-99.99,,,-99.99,,2013-01-20 18:52:00,
2013-01-20 11:02:00,57.0,38.0,30.22,East,81,1.0,3.0,48,-99.99,,,-99.99,,2013-01-20 19:02:00,
2013-01-20 11:12:00,57.0,38.0,30.22,East,81,1.0,3.0,48,-99.99,,,-99.99,,2013-01-20 19:12:00,
2013-01-20 11:22:00,58.0,37.0,30.22,NNE,15,2.0,4.0,45,-99.99,,,-99.99,,2013-01-20 19:22:00,
2013-01-20 11:33:00,56.0,35.0,30.21,North,5,3.0,3.0,45,-99.99,,,-99.99,,2013-01-20 19:33:00,
2013-01-20 11:42:00,56.0,35.0,30.21,North,5,3.0,3.0,45,-99.99,,,-99.99,,2013-01-20 19:42:00,
2013-01-20 11:52:00,55.0,33.0,30.21,NNE,14,2.0,3.0,44,-99.99,,,-99.99,,2013-01-20 19:52:00,
2013-01-20 12:02:00,55.0,35.0,30.19,NW,308,1.0,3.0,47,-99.99,,,-99.99,,2013-01-20 20:02:00,
2013-01-20 12:12:00,55.0,35.0,30.19,NW,308,1.0,3.0,47,-99.99,,,-99.99,,2013-01-20 20:12:00,
2013-01-20 12:22:00,56.0,34.0,30.19,NNE,30,0.0,3.0,44,-99.99,,,-99.99,,2013-01-20 20:22:00,
2013-01-20 12:33:00,56.0,33.0,30.18,North,349,1.0,4.0,42,-99.99,,,-99.99,,2013-01-20 20:33:00,
2013-01-20 12:42:00,56.0,33.0,30.18,North,349,1.0,4.0,42,-99.99,,,-99.99,,2013-01-20 20:42:00,
2013-01-20 12:52:00,57.0,35.0,30.17,WNW,289,1.0,4.0,43,-99.99,,,-99.99,,2013-01-20 20:52:00,
2013-01-20 13:03:00,57.0,35.0,30.16,NW,322,1.0,3.0,44,-99.99,,,-99.99,,2013-01-20 21:03:00,
2013-01-20 13:12:00,57.0,35.0,30.16,NW,322,1.0,3.0,44,-99.99,,,-99.99,,2013-01-20 21:12:00,
2013-01-20 13:22:00,57.0,36.0,30.16,West,277,2.0,4.0,46,-99.99,,,-99.99,,2013-01-20 21:22:00,
2013-01-20 13:33:00,57.0,35.0,30.15,North,358,2.0,3.0,43,-99.99,,,-99.99,,2013-01-20 21:33:00,
2013-01-20 13:42:00,57.0,35.0,30.15,North,358,2.0,3.0,43,-99.99,,,-99.99,,2013-01-20 21:42:00,
2013-01-20 13:52:00,57.0,33.0,30.15,NW,321,2.0,3.0,40,-99.99,,,-99.99,,2013-01-20 21:52:00,
2013-01-20 14:02:00,58.0,33.0,30.14,North,355,2.0,5.0,39,-99.99,,,-99.99,,2013-01-20 22:02:00,
2013-01-20 14:12:00,58.0,33.0,30.14,North,355,2.0,5.0,39,-99.99,,,-99.99,,2013-01-20 22:12:00,
2013-01-20 14:22:00,58.0,33.0,30.14,NNE,16,2.0,3.0,39,-99.99,,,-99.99,,2013-01-20 22:22:00,
2013-01-20 14:33:00,58.0,34.0,30.13,NNW,331,2.0,3.0,41,-99.99,,,-99.99,,2013-01-20 22:33:00,
2013-01-20 14:42:00,58.0,34.0,30.13,NNW,331,2.0,3.0,41,-99.99,,,-99.99,,2013-01-20 22:42:00,
2013-01-20 14:52:00,58.0,35.0,30.13,NNE,16,2.0,3.0,42,-99.99,,,-99.99,,2013-01-20 22:52:00,
2013-01-20 15:02:00,58.0,36.0,30.13,NW,311,3.0,3.0,44,-99.99,,,-99.99,,2013-01-20 23:02:00,
2013-01-20 15:12:00,58.0,36.0,30.13,NW,311,3.0,3.0,44,-99.99,,,-99.99,,2013-01-20 23:12:00,
2013-01-20 15:22:00,58.0,34.0,30.14,West,264,1.0,3.0,41,-99.99,,,-99.99,,2013-01-20 23:22:00,
2013-01-20 15:33:00,59.0,35.0,30.14,WNW,302,2.0,4.0,41,-99.99,,,-99.99,,2013-01-20 23:33:00,
2013-01-20 15:42:00,59.0,35.0,30.14,WNW,302,2.0,4.0,41,-99.99,,,-99.99,,2013-01-20 23:42:00,
2013-01-20 15:52:00,59.0,36.0,30.14,WNW,287,2.0,3.0,42,-99.99,,,-99.99,,2013-01-20 23:52:00,
2013-01-20 16:02:00,58.0,36.0,30.14,NW,325,2.0,2.0,43,-99.99,,,-99.99,,2013-01-21 00:02:00,
2013-01-20 16:12:00,58.0,36.0,30.14,NW,325,2.0,2.0,43,-99.99,,,-99.99,,2013-01-21 00:12:00,
2013-01-20 16:22:00,58.0,35.0,30.14,NNW,330,1.0,3.0,42,-99.99,,,-99.99,,2013-01-21 00:22:00,
2013-01-20 16:33:00,58.0,36.0,30.14,West,266,2.0,3.0,43,-99.99,,,-99.99,,2013-01-21 00:33:00,
2013-01-20 16:42:00,58.0,36.0,30.14,West,266,2.0,3.0,43,-99.99,,,-99.99,,2013-01-21 00:42:00,
2013-01-20 16:53:00,58.0,36.0,30.14,West,264,2.0,3.0,43,-99.99,,,-99.99,,2013-01-21 00:53:00,
2013-01-20 17:02:00,58.0,36.0,30.14,West,280,2.0,2.0,43,-99.99,,,-99.99,,2013-01-21 01:02:00,
2013-01-20 17:12:00,58.0,36.0,30.14,West,280,2.0,2.0,43,-99.99,,,-99.99,,2013-01-21 01:12:00,
2013-01-20 17:22:00,58.0,36.0,30.14,West,280,0.0,0.0,43,-99.99,,,-99.99,,2013-01-21 01:22:00,
2013-01-20 17:32:00,57.0,34.0,30.14,West,274,1.0,3.0,42,-99.99,,,-99.99,,2013-01-21 01:32:00,
2013-01-20 17:42:00,57.0,34.0,30.14,West,274,1.0,3.0,42,-99.99,,,-99.99,,2013-01-21 01:42:00,
2013-01-20 17:52:00,57.0,35.0,30.14,West,267,3.0,3.0,43,-99.99,,,-99.99,,2013-01-21 01:52:00,
2013-01-20 18:02:00,57.0,35.0,30.14,West,267,2.0,2.0,43,-99.99,,,-99.99,,2013-01-21 02:02:00,
2013-01-20 18:12:00,57.0,35.0,30.14,West,267,2.0,2.0,43,-99.99,,,-99.99,,2013-01-21 02:12:00,
2013-01-20 18:22:00,57.0,35.0,30.14,West,268,1.0,2.0,43,-99.99,,,-99.99,,2013-01-21 02:22:00,
2013-01-20 18:33:00,57.0,34.0,30.14,West,266,0.0,2.0,42,-99.99,,,-99.99,,2013-01-21 02:33:00,
2013-01-20 18:42:00,57.0,34.0,30.14,West,266,0.0,2.0,42,-99.99,,,-99.99,,2013-01-21 02:42:00,
2013-01-20 18:52:00,56.0,34.0,30.14,West,267,0.0,1.0,44,-99.99,,,-99.99,,2013-01-21 02:52:00,
2013-01-20 19:02:00,55.0,33.0,30.15,West,267,0.0,1.0,43,-99.99,,,-99.99,,2013-01-21 03:02:00,
2013-01-20 19:12:00,55.0,33.0,30.15,West,267,0.0,1.0,43,-99.99,,,-99.99,,2013-01-21 03:12:00,
2013-01-20 19:23:00,55.0,32.0,30.15,West,268,0.0,2.0,42,-99.99,,,-99.99,,2013-01-21 03:23:00,
2013-01-20 19:33:00,55.0,33.0,30.15,West,267,0.0,0.0,44,-99.99,,,-99.99,,2013-01-21 03:33:00,
2013-01-20 19:42:00,55.0,33.0,30.15,West,267,0.0,0.0,44,-99.99,,,-99.99,,2013-01-21 03:42:00,
2013-01-20 19:52:00,54.0,32.0,30.15,West,267,0.0,0.0,43,-99.99,,,-99.99,,2013-01-21 03:52:00,
2013-01-20 20:02:00,54.0,33.0,30.16,West,267,0.0,0.0,44,-99.99,,,-99.99,,2013-01-21 04:02:00,
2013-01-20 20:12:00,54.0,33.0,30.16,West,267,0.0,0.0,44,-99.99,,,-99.99,,2013-01-21 04:12:00,
2013-01-20 20:22:00,54.0,33.0,30.16,West,268,0.0,1.0,45,-99.99,,,-99.99,,2013-01-21 04:22:00,
2013-01-20 20:32:00,53.0,34.0,30.16,West,268,0.0,2.0,48,-99.99,,,-99.99,,2013-01-21 04:32:00,
2013-01-20 20:42:00,53.0,34.0,30.16,West,268,0.0,2.0,48,-99.99,,,-99.99,,2013-01-21 04:42:00,
2013-01-20 20:52:00,52.0,33.0,30.16,West,267,0.0,1.0,49,-99.99,,,-99.99,,2013-01-21 04:52:00,
2013-01-20 21:03:00,52.0,35.0,30.16,West,267,0.0,0.0,52,-99.99,,,-99.99,,2013-01-21 05:03:00,
2013-01-20 21:12:00,52.0,35.0,30.16,West,267,0.0,0.0,52,-99.99,,,-99.99,,2013-01-21 05:12:00,
2013-01-20 21:22:00,52.0,34.0,30.17,NW,315,1.0,3.0,51,-99.99,,,-99.99,,2013-01-21 05:22:00,
2013-01-20 21:33:00,52.0,35.0,30.17,NW,314,0.0,1.0,53,-99.99,,,-99.99,,2013-01-21 05:33:00,
2013-01-20 21:42:00,52.0,35.0,30.17,NW,314,0.0,1.0,53,-99.99,,,-99.99,,2013-01-21 05:42:00,
2013-01-20 21:52:00,51.0,35.0,30.17,NW,314,0.0,1.0,54,-99.99,,,-99.99,,2013-01-21 05:52:00,
2013-01-20 22:02:00,51.0,36.0,30.17,NW,314,0.0,2.0,56,-99.99,,,-99.99,,2013-01-21 06:02:00,
2013-01-20 22:12:00,51.0,36.0,30.17,NW,314,0.0,2.0,56,-99.99,,,-99.99,,2013-01-21 06:12:00,
2013-01-20 22:22:00,51.0,36.0,30.18,NW,315,0.0,1.0,56,-99.99,,,-99.99,,2013-01-21 06:22:00,
2013-01-20 22:32:00,50.0,36.0,30.18,NW,314,0.0,1.0,58,-99.99,,,-99.99,,2013-01-21 06:32:00,
2013-01-20 22:43:00,50.0,36.0,30.18,NW,314,0.0,1.0,58,-99.99,,,-99.99,,2013-01-21 06:43:00,
2013-01-20 22:52:00,50.0,35.0,30.17,NW,314,0.0,1.0,57,-99.99,,,-99.99,,2013-01-21 06:52:00,
2013-01-20 23:02:00,50.0,36.0,30.18,SSE,156,1.0,3.0,58,-99.99,,,-99.99,,2013-01-21 07:02:00,
2013-01-20 23:12:00,50.0,36.0,30.18,SSE,156,1.0,3.0,58,-99.99,,,-99.99,,2013-01-21 07:12:00,
2013-01-20 23:22:00,49.0,35.0,30.18,NNE,19,0.0,3.0,58,-99.99,,,-99.99,,2013-01-21 07:22:00,
2013-01-20 23:33:00,49.0,36.0,30.17,WSW,253,2.0,3.0,60,-99.99,,,-99.99,,2013-01-21 07:33:00,
2013-01-20 23:42:00,49.0,36.0,30.17,WSW,253,2.0,3.0,60,-99.99,,,-99.99,,2013-01-21 07:42:00,
2013-01-20 23:52:00,49.0,37.0,30.17,WNW,286,1.0,2.0,62,-99.99,,,-99.99,,2013-01-21 07:52:00,